User: anonymous   Login
Location: Wayah Bald
(35.1806°N, 83.5603°W)
Time: 16:34:35
(UTC-04:00)
Language:

Meteor 1-27 Rocket - Orbit

View from above orbital plane
View from above orbital plane
View from above satellite
View from above satellite

Ground track
Ground track

The orbit data is extracted from the following two-line orbital elements,

1  9904U 77024B   17088.81016575 +.00000005 +00000-0 -45611-5 0  9997
2  9904 081.2642 206.5348 0055274 189.9913 170.0163 14.06841908051643
Epoch (UTC): 29 March 2017 19:26:38
Eccentricity: 0.0055274
inclination: 81.2642°
perigee height: 830 km
apogee height: 910 km
right ascension of ascending node: 206.5348°
argument of perigee: 189.9913°
revolutions per day: 14.06841908
mean anomaly at epoch: 170.0163°
orbit number at epoch: 5164

The dashed part of the orbit path shows where the satellite is in the earth's shadow,  

DLR